CUBEBUG-2 (LO-74)

Last updated on Thu Oct 30 2025 00:03:10 GMT+0000 (Coordinated Universal Time)

1 39440U 13066AA 25302.39744058 .00007615 00000+0 74284-3 0 9994 2 39440 97.8635 246.1679 0062504 72.1844 288.6180 14.91244079642565
UTC large
Height (km)
Speed (km/s)
/
Latitude / Longitude
Inclination (degrees)
Orbital Period (minutes)
Azimuth
Elevation
Range (km)
Doppler Factor

Next 0 passes for location: London (51.5072 / 0.1276)

Sorry there are no passes over London.